FW9328 Weather Reports


time (UTC)temp
F
wind
direction
speed
knots
gust
knots
rain 1hr
in
rain 24hr
in
rain mn
in
humidity
%
barometer
mb
20260906224041 83 187 0.0 2.6 0.00 0.00 0.00 42 1017.0
20260906223539 83 191 0.0 2.6 0.00 0.00 0.00 41 1017.1
20260906223054 84 184 0.9 2.6 0.00 0.00 0.00 41 1017.2
20260906222541 84 0 0.0 3.5 0.00 0.00 0.00 40 1017.3
20260906222039 84 198 0.0 3.5 0.00 0.00 0.00 42 1017.3
20260906221604 84 0 0.9 3.5 0.00 0.00 0.00 40 1017.3
20260906221041 85 239 0.9 2.6 0.00 0.00 0.00 39 1017.3
20260906220545 85 275 0.9 4.3 0.00 0.00 0.00 39 1017.2
20260906220057 85 0 0.9 4.3 0.00 0.00 0.00 40 1017.3
20260906215543 85 0 0.0 2.6 0.00 0.00 0.00 39 1017.5
20260906215041 85 26 0.0 2.6 0.00 0.00 0.00 40 1017.4
20260906214555 85 18 0.0 3.5 0.00 0.00 0.00 40 1017.5
20260906214041 85 35 0.0 3.5 0.00 0.00 0.00 41 1017.6
20260906213541 84 5 0.9 3.5 0.00 0.00 0.00 39 1017.7
20260906213055 84 0 0.9 3.5 0.00 0.00 0.00 41 1017.6
20260906212538 84 0 0.9 3.5 0.00 0.00 0.00 40 1017.8
20260906212059 83 298 0.0 2.6 0.00 0.00 0.00 40 1017.8
20260906211554 83 0 0.0 2.6 0.00 0.00 0.00 42 1017.8
20260906211043 83 0 0.0 2.6 0.00 0.00 0.00 43 1017.9
20260906210542 83 0 0.9 3.5 0.00 0.00 0.00 43 1018.1
20260906205542 83 202 0.9 4.3 0.00 0.00 0.00 39 1018.3
20260906205043 83 0 0.9 4.3 0.00 0.00 0.00 39 1018.3
20260906204549 83 203 1.7 4.3 0.00 0.00 0.00 38 1018.2
20260906204042 84 203 0.0 3.5 0.00 0.00 0.00 38 1018.4
20260906203545 84 0 0.9 4.3 0.00 0.00 0.00 38 1018.4
20260906203049 84 236 1.7 4.3 0.00 0.00 0.00 37 1018.5
20260906202542 85 205 0.0 2.6 0.00 0.00 0.00 38 1018.5
20260906202042 85 242 0.0 2.6 0.00 0.00 0.00 38 1018.5
20260906201550 85 0 0.0 2.6 0.00 0.00 0.00 39 1018.6
20260906201042 86 0 0.9 5.2 0.00 0.00 0.00 38 1018.6
20260906200542 87 348 0.9 5.2 0.00 0.00 0.00 38 1018.5
20260906200055 88 102 1.7 6.1 0.00 0.00 0.00 35 1018.4
20260906195543 89 0 1.7 6.1 0.00 0.00 0.00 38 1018.6
20260906195042 89 297 1.7 4.3 0.00 0.00 0.00 36 1018.6
20260906194552 89 0 0.9 4.3 0.00 0.00 0.00 37 1018.6
20260906194043 89 296 0.9 9.6 0.00 0.00 0.00 37 1018.5
20260906193543 89 32 2.6 9.6 0.00 0.00 0.00 36 1018.7
20260906193054 88 57 3.5 9.6 0.00 0.00 0.00 38 1018.8
20260906192542 88 275 2.6 7.0 0.00 0.00 0.00 38 1018.7
20260906192043 87 11 1.7 7.0 0.00 0.00 0.00 39 1018.8
20260906191548 87 40 0.9 7.8 0.00 0.00 0.00 40 1018.9
20260906191043 87 92 0.9 7.8 0.00 0.00 0.00 43 1019.1
20260906190542 86 22 0.0 3.5 0.00 0.00 0.00 44 1019.3
20260906190113 86 0 1.7 8.7 0.00 0.00 0.00 41 1019.2
20260906185542 86 57 2.6 8.7 0.00 0.00 0.00 44 1019.3
20260906185043 85 0 0.0 4.3 0.00 0.00 0.00 44 1019.4
20260906184555 85 279 1.7 4.3 0.00 0.00 0.00 41 1019.5
20260906184043 85 338 0.9 5.2 0.00 0.00 0.00 43 1019.6
20260906183544 84 40 0.9 5.2 0.00 0.00 0.00 42 1019.8
20260906183057 83 79 1.7 5.2 0.00 0.00 0.00 41 1019.8
20260906182542 83 95 0.0 3.5 0.00 0.00 0.00 41 1019.8
20260906182046 82 233 0.9 3.5 0.00 0.00 0.00 40 1019.9
20260906181549 82 0 0.9 3.5 0.00 0.00 0.00 42 1020.1
20260906181042 82 209 0.9 3.5 0.00 0.00 0.00 40 1020.3
20260906180543 82 0 0.0 6.1 0.00 0.00 0.00 39 1020.2
20260906180055 82 37 0.9 6.1 0.00 0.00 0.00 41 1020.3
20260906175543 82 336 0.0 5.2 0.00 0.00 0.00 38 1020.5
20260906175041 82 32 1.7 5.2 0.00 0.00 0.00 39 1020.5
20260906174549 81 51 0.9 5.2 0.00 0.00 0.00 42 1020.7
20260906174043 81 16 1.7 7.8 0.00 0.00 0.00 43 1020.8
20260906173542 81 111 1.7 7.8 0.00 0.00 0.00 43 1021.1
20260906173050 80 46 1.7 5.2 0.00 0.00 0.00 45 1021.0
20260906172544 79 5 0.9 2.6 0.00 0.00 0.00 46 1021.0
20260906172042 79 0 0.0 1.7 0.00 0.00 0.00 45 1021.2
20260906171552 78 0 0.0 2.6 0.00 0.00 0.00 49 1021.2
20260906171042 78 0 0.0 3.5 0.00 0.00 0.00 48 1021.3
20260906170542 78 0 0.9 3.5 0.00 0.00 0.00 46 1021.3
20260906170056 77 84 0.0 3.5 0.00 0.00 0.00 49 1021.4
20260906165543 77 0 0.9 3.5 0.00 0.00 0.00 54 1021.4
20260906165041 76 252 0.0 3.5 0.00 0.00 0.00 56 1021.5
20260906164550 75 0 0.0 5.2 0.00 0.00 0.00 59 1021.6
20260906164042 75 35 1.7 5.2 0.00 0.00 0.00 58 1021.6
20260906163541 74 39 0.0 4.3 0.00 0.00 0.00 58 1021.6
20260906163051 74 73 0.9 4.3 0.00 0.00 0.00 59 1021.6
20260906162543 74 39 1.7 4.3 0.00 0.00 0.00 62 1021.7
20260906162041 73 31 0.9 3.5 0.00 0.00 0.00 61 1021.7
20260906161549 73 0 0.0 0.9 0.00 0.00 0.00 62 1021.6
20260906161043 73 0 0.0 1.7 0.00 0.00 0.00 62 1021.6
20260906160542 73 55 0.0 2.6 0.00 0.00 0.00 62 1021.6
20260906160108 73 55 0.0 3.5 0.00 0.00 0.00 63 1021.6
20260906155543 72 45 1.7 3.5 0.00 0.00 0.00 64 1021.6
20260906155042 72 19 0.0 3.5 0.00 0.00 0.00 66 1021.5
20260906154600 71 0 0.0 4.3 0.00 0.00 0.00 65 1021.5
20260906154042 71 0 0.9 4.3 0.00 0.00 0.00 66 1021.5
20260906153542 71 30 0.9 4.3 0.00 0.00 0.00 67 1021.6
20260906153106 70 36 0.9 4.3 0.00 0.00 0.00 69 1021.6
20260906152542 69 29 0.0 3.5 0.00 0.00 0.00 72 1021.6
20260906152042 69 0 0.9 3.5 0.00 0.00 0.00 71 1021.6
20260906151557 68 80 0.9 3.5 0.00 0.00 0.00 73 1021.7
20260906151042 68 30 0.0 0.9 0.00 0.00 0.00 75 1021.7
20260906150542 67 0 0.0 0.9 0.00 0.00 0.00 75 1021.7
20260906150059 67 0 0.0 2.6 0.00 0.00 0.00 75 1021.8
20260906145543 66 0 0.0 2.6 0.00 0.00 0.00 76 1021.8
20260906145043 66 38 0.9 2.6 0.00 0.00 0.00 76 1021.9
20260906144602 66 0 0.0 0.0 0.00 0.00 0.00 76 1021.8
20260906144041 66 0 0.0 0.0 0.00 0.00 0.00 76 1021.8
20260906143543 66 0 0.0 3.5 0.00 0.00 0.00 76 1021.8
20260906143049 66 0 0.0 3.5 0.00 0.00 0.00 75 1021.9
20260906142541 66 360 0.0 4.3 0.00 0.00 0.00 75 1021.7
20260906142043 66 0 1.7 4.3 0.00 0.00 0.00 76 1021.7
20260906141601 65 360 1.7 4.3 0.00 0.00 0.00 77 1021.7
20260906141043 65 360 0.9 3.5 0.00 0.00 0.00 78 1021.6
20260906140546 64 360 0.9 2.6 0.00 0.00 0.00 78 1021.5
20260906140059 64 360 0.9 2.6 0.00 0.00 0.00 79 1021.6
20260906135542 63 347 0.0 2.6 0.00 0.00 0.00 79 1021.5
20260906135042 63 0 0.0 2.6 0.00 0.00 0.00 79 1021.5
20260906134559 63 0 0.0 2.6 0.00 0.00 0.00 79 1021.4
20260906134043 62 0 0.0 1.7 0.00 0.00 0.00 78 1021.4
20260906133541 62 352 0.0 1.7 0.00 0.00 0.00 76 1021.6
20260906133110 61 0 0.0 0.0 0.00 0.00 0.00 75 1021.6
20260906132542 61 0 0.0 0.0 0.00 0.00 0.00 74 1021.6
20260906132041 61 0 0.0 0.0 0.00 0.00 0.00 74 1021.5
20260906131600 61 0 0.0 0.0 0.00 0.00 0.00 74 1021.6
20260906131041 60 0 0.0 1.7 0.00 0.00 0.00 74 1021.6
20260906130542 60 0 0.0 1.7 0.00 0.00 0.00 73 1021.5
20260906130048 60 0 0.0 0.9 0.00 0.00 0.00 74 1021.6
20260906125542 60 0 0.0 0.9 0.00 0.00 0.00 74 1021.4
20260906125045 60 0 0.0 1.7 0.00 0.00 0.00 74 1021.5
20260906124553 60 0 0.0 1.7 0.00 0.00 0.00 74 1021.5
20260906124042 60 0 0.0 1.7 0.00 0.00 0.00 74 1021.4
20260906123544 60 0 0.0 0.0 0.00 0.00 0.00 75 1021.4
20260906123052 60 0 0.0 0.0 0.00 0.00 0.00 74 1021.3
20260906122542 60 0 0.0 0.0 0.00 0.00 0.00 74 1021.1
20260906122042 60 0 0.0 0.0 0.00 0.00 0.00 74 1021.3
20260906121551 60 0 0.0 0.0 0.00 0.00 0.00 73 1021.4
20260906121041 60 0 0.0 0.0 0.00 0.00 0.00 73 1021.3
20260906120542 60 0 0.0 0.0 0.00 0.00 0.00 74 1021.2
20260906120050 60 0 0.0 0.0 0.00 0.00 0.00 73 1021.1
20260906115542 61 0 0.0 0.0 0.00 0.00 0.00 74 1021.1
20260906115040 61 0 0.0 0.0 0.00 0.00 0.00 73 1021.1
20260906114605 61 0 0.0 0.0 0.00 0.00 0.00 73 1021.2
20260906114041 61 0 0.0 0.0 0.00 0.00 0.00 73 1021.1
20260906113541 61 0 0.0 0.0 0.00 0.00 0.00 72 1021.2
20260906113052 61 0 0.0 0.0 0.00 0.00 0.00 72 1021.1
20260906112542 61 0 0.0 0.0 0.00 0.00 0.00 72 1021.2
20260906112042 61 0 0.0 0.0 0.00 0.00 0.00 72 1021.1
20260906111553 61 0 0.0 0.0 0.00 0.00 0.00 72 1021.0
20260906111041 62 0 0.0 0.0 0.00 0.00 0.00 71 1020.9
20260906110546 62 0 0.0 0.0 0.00 0.00 0.00 71 1020.9
20260906110050 62 0 0.0 0.0 0.00 0.00 0.00 70 1021.0
20260906105541 62 0 0.0 0.0 0.00 0.00 0.00 70 1021.1
20260906105041 62 0 0.0 0.9 0.00 0.00 0.00 69 1021.1
20260906104623 62 0 0.0 1.7 0.00 0.00 0.00 69 1021.1
20260906104042 62 0 0.0 1.7 0.00 0.00 0.00 69 1021.1
20260906103542 62 352 0.0 1.7 0.00 0.00 0.00 69 1021.1
20260906103053 62 0 0.0 1.7 0.00 0.00 0.00 68 1021.1
20260906102542 62 352 0.0 1.7 0.00 0.00 0.00 68 1021.0
20260906102042 62 0 0.0 0.0 0.00 0.00 0.00 68 1021.2
20260906101553 63 0 0.0 0.0 0.00 0.00 0.00 67 1021.1
20260906101041 63 0 0.0 1.7 0.00 0.00 0.00 67 1021.1
20260906100541 63 0 0.0 1.7 0.00 0.00 0.00 66 1021.2
20260906100049 63 0 0.0 1.7 0.00 0.00 0.00 65 1021.1
20260906095541 64 0 0.0 0.0 0.00 0.00 0.00 65 1021.0
20260906095041 64 0 0.0 0.0 0.00 0.00 0.00 64 1021.1
20260906094554 64 0 0.0 1.7 0.00 0.00 0.00 64 1020.9
20260906094042 64 0 0.0 1.7 0.00 0.00 0.00 63 1021.0
20260906093542 65 0 0.0 1.7 0.00 0.00 0.00 62 1020.9
20260906093113 65 0 0.0 0.0 0.00 0.00 0.00 62 1021.0
20260906092542 65 0 0.0 0.0 0.00 0.00 0.00 62 1021.0
20260906092042 66 0 0.0 0.0 0.00 0.00 0.00 61 1020.7
20260906091600 66 0 0.0 0.0 0.00 0.00 0.00 60 1020.8
20260906091042 66 0 0.0 0.0 0.00 0.00 0.00 59 1020.8
20260906090541 66 0 0.0 0.0 0.00 0.00 0.00 60 1020.5
20260906085543 66 0 0.0 2.6 0.00 0.00 0.00 58 1020.4
20260906085047 66 0 0.0 2.6 0.00 0.00 0.00 58 1020.4
20260906084557 66 0 0.0 2.6 0.00 0.00 0.00 57 1020.2
20260906084041 66 0 0.0 1.7 0.00 0.00 0.00 55 1020.2
20260906083543 66 0 0.0 1.7 0.00 0.00 0.00 55 1020.0
20260906083053 67 0 0.0 1.7 0.00 0.00 0.00 55 1020.1
20260906082541 67 0 0.0 1.7 0.00 0.00 0.00 55 1020.1
20260906082041 67 0 0.0 1.7 0.00 0.00 0.00 55 1020.1
20260906081553 67 0 0.0 1.7 0.00 0.00 0.00 55 1020.0
20260906081041 67 0 0.0 1.7 0.00 0.00 0.00 56 1020.0
20260906080542 67 0 0.0 0.0 0.00 0.00 0.00 55 1020.0
20260906080051 67 0 0.0 0.0 0.00 0.00 0.00 55 1020.2
20260906075541 68 0 0.0 0.0 0.00 0.00 0.00 54 1020.3
20260906075041 68 0 0.0 1.7 0.00 0.00 0.00 55 1020.2
20260906074602 68 0 0.0 1.7 0.00 0.00 0.00 54 1020.2
20260906074041 69 0 0.0 0.9 0.00 0.00 0.00 53 1020.2
20260906073541 69 0 0.0 0.9 0.00 0.00 0.00 52 1020.2
20260906073051 69 0 0.0 0.9 0.00 0.00 0.00 52 1020.3
20260906072541 70 0 0.0 0.0 0.00 0.00 0.00 52 1020.3
20260906072040 70 0 0.0 0.0 0.00 0.00 0.00 51 1020.4
20260906071603 71 0 0.0 0.0 0.00 0.00 0.00 50 1020.2
20260906071042 71 0 0.0 0.0 0.00 0.00 0.00 49 1020.3
20260906070541 72 0 0.0 0.0 0.00 0.00 0.00 48 1020.2
20260906070104 72 0 0.0 0.0 0.00 0.00 0.00 47 1020.1
20260906065543 72 0 0.0 0.0 0.00 0.00 0.00 47 1020.0
20260906065043 73 0 0.0 4.3 0.00 0.00 0.00 46 1020.1
20260906064556 73 0 0.0 4.3 0.00 0.00 0.00 45 1020.2
20260906064041 73 360 1.7 4.3 0.00 0.00 0.00 45 1020.2
20260906063541 73 360 0.0 2.6 0.00 0.00 0.00 45 1020.2
20260906063055 73 0 0.0 0.0 0.00 0.00 0.00 44 1020.2
20260906062542 74 0 0.0 1.7 0.00 0.00 0.00 45 1020.3
20260906062042 74 0 0.0 1.7 0.00 0.00 0.00 46 1020.3
20260906061557 74 360 0.0 1.7 0.00 0.00 0.00 47 1020.2
20260906061042 74 0 0.0 4.3 0.00 0.00 0.00 43 1020.1
20260906060542 75 0 0.0 4.3 0.00 0.00 0.00 43 1020.0
20260906055541 75 360 0.9 2.6 0.00 0.00 0.00 42 1020.1
20260906055041 75 0 0.0 0.0 0.00 0.00 0.00 41 1020.3
20260906054608 76 0 0.0 0.0 0.00 0.00 0.00 40 1020.4
20260906054044 76 0 0.0 2.6 0.00 0.00 0.00 40 1020.6
20260906053541 76 0 0.0 2.6 0.00 0.00 0.00 40 1020.8
20260906053100 76 0 0.0 2.6 0.00 0.00 0.00 40 1020.8
20260906052544 76 0 0.0 3.5 0.00 0.00 0.00 40 1020.9
20260906052041 76 360 1.7 3.5 0.00 0.00 0.00 41 1020.9
20260906051551 76 0 0.9 1.7 0.00 0.00 0.00 41 1020.9
20260906051042 77 360 0.0 0.9 0.00 0.00 0.00 40 1020.8
20260906050544 77 0 0.0 1.7 0.00 0.00 0.00 39 1020.6
20260906050120 77 0 0.0 4.3 0.00 0.00 0.00 39 1020.4
20260906045542 77 360 1.7 4.3 0.00 0.00 0.00 39 1020.2
20260906045041 77 360 0.9 4.3 0.00 0.00 0.00 38 1020.2
20260906044556 77 0 0.0 2.6 0.00 0.00 0.00 38 1020.1
20260906044043 77 360 0.9 3.5 0.00 0.00 0.00 39 1020.1
20260906043541 76 0 0.0 3.5 0.00 0.00 0.00 39 1020.1
20260906043056 76 0 0.0 0.9 0.00 0.00 0.00 39 1020.0
20260906042541 76 0 0.0 1.7 0.00 0.00 0.00 38 1019.9
20260906042041 76 0 0.0 1.7 0.00 0.00 0.00 39 1019.8
20260906041553 76 0 0.0 1.7 0.00 0.00 0.00 39 1019.9
20260906041042 76 0 0.0 3.5 0.00 0.00 0.00 40 1019.9
20260906040540 76 0 0.0 4.3 0.00 0.00 0.00 40 1019.9
20260906040055 76 360 0.9 4.3 0.00 0.00 0.00 40 1020.0
20260906035542 76 360 0.9 4.3 0.00 0.00 0.00 39 1019.8
20260906035041 77 360 0.0 1.7 0.00 0.00 0.00 39 1019.7
20260906034557 77 360 0.0 4.3 0.00 0.00 0.00 39 1019.5
20260906034040 78 0 0.0 7.0 0.00 0.00 0.00 38 1019.5
20260906033541 78 360 0.0 7.0 0.00 0.00 0.00 38 1019.3
20260906033106 78 360 1.7 7.0 0.00 0.00 0.00 37 1019.3
20260906032544 79 360 1.7 4.3 0.00 0.00 0.00 36 1019.1
20260906032041 79 360 0.9 7.0 0.00 0.00 0.00 35 1019.1
20260906031602 79 360 0.9 7.0 0.00 0.00 0.00 35 1019.2
20260906031041 79 360 1.7 7.0 0.00 0.00 0.00 35 1019.0
20260906030541 79 360 0.9 5.2 0.00 0.00 0.00 35 1018.8
20260906030049 79 360 0.0 2.6 0.00 0.00 0.00 35 1018.8
20260906025541 80 0 0.0 0.9 0.00 0.00 0.00 35 1018.7
20260906025042 80 0 0.0 0.9 0.00 0.00 0.00 34 1018.6
20260906024607 81 0 0.0 3.5 0.00 0.00 0.00 34 1018.5
20260906024041 81 0 0.0 3.5 0.00 0.00 0.00 33 1018.5
20260906023541 81 360 0.0 4.3 0.00 0.00 0.00 33 1018.6
20260906023057 82 0 0.0 4.3 0.00 0.00 0.00 32 1018.4
20260906022543 82 360 0.9 4.3 0.00 0.00 0.00 32 1018.4
20260906022041 82 0 0.0 5.2 0.00 0.00 0.00 31 1018.4
20260906021553 83 0 0.0 7.8 0.00 0.00 0.00 31 1018.2
20260906021040 83 360 1.7 8.7 0.00 0.00 0.00 30 1018.1
20260906020544 82 360 0.9 8.7 0.00 0.00 0.00 31 1018.1
20260906020100 82 360 2.6 8.7 0.00 0.00 0.00 33 1018.1
20260906015541 82 360 0.9 7.0 0.00 0.00 0.00 32 1018.3
20260906015042 82 360 0.9 7.0 0.00 0.00 0.00 32 1018.4
20260906014606 82 360 0.9 4.3 0.00 0.00 0.00 32 1018.4
20260906014041 82 360 0.9 2.6 0.00 0.00 0.00 32 1018.4
20260906013541 82 0 0.0 4.3 0.00 0.00 0.00 32 1018.3
20260906013053 82 0 0.9 4.3 0.00 0.00 0.00 32 1018.2
20260906012540 82 221 0.9 5.2 0.00 0.00 0.00 32 1018.2
20260906012041 82 236 0.0 7.8 0.00 0.00 0.00 32 1018.1
20260906011552 82 360 0.9 8.7 0.00 0.00 0.00 32 1018.2
20260906011043 83 360 1.7 8.7 0.00 0.00 0.00 32 1018.3
20260906010542 83 360 2.6 8.7 0.00 0.00 0.00 31 1018.4
20260906005542 84 156 2.6 10.4 0.00 0.00 0.00 31 1018.2
20260906005043 84 181 2.6 9.6 0.00 0.00 0.00 30 1018.3
20260906004553 84 180 0.9 5.2 0.00 0.00 0.00 31 1018.4
20260906004042 84 0 0.9 6.1 0.00 0.00 0.00 31 1018.4
20260906003543 84 185 0.9 7.0 0.00 0.00 0.00 31 1018.2
20260906003049 85 182 1.7 7.0 0.00 0.00 0.00 30 1018.3
20260906002543 85 153 1.7 9.6 0.00 0.00 0.00 31 1018.3
20260906002043 85 163 3.5 9.6 0.00 0.00 0.00 30 1018.4
20260906001549 86 130 2.6 10.4 0.00 0.00 0.00 30 1018.4
20260906001043 86 208 1.7 10.4 0.00 0.00 0.00 28 1018.3
20260906000544 87 222 3.5 10.4 0.00 0.00 0.00 28 1018.3
20260906000057 88 251 0.9 5.2 0.00 0.00 0.00 28 1018.2
20260905235543 88 0 0.9 5.2 0.00 0.00 0.00 28 1018.1
20260905235043 88 346 0.0 1.7 0.00 0.00 0.00 28 1018.1
20260905234610 88 267 0.0 1.7 0.00 0.00 0.00 28 1018.2
20260905234046 88 0 0.0 1.7 0.00 0.00 0.00 29 1018.2
20260905233544 88 0 0.0 1.7 0.00 0.00 0.00 30 1018.1
20260905233051 88 0 0.0 0.9 0.00 0.00 0.00 28 1018.1
20260905232542 88 0 0.0 0.9 0.00 0.00 0.00 32 1018.0
20260905232042 89 0 0.0 2.6 0.00 0.00 0.00 27 1018.0
20260905231554 89 0 0.0 2.6 0.00 0.00 0.00 26 1017.9
20260905231042 89 0 0.0 1.7 0.00 0.00 0.00 28 1017.8
20260905230543 89 273 0.0 1.7 0.00 0.00 0.00 28 1017.8
20260905230120 89 295 0.0 1.7 0.00 0.00 0.00 26 1017.7
20260905225545 90 298 0.0 1.7 0.00 0.00 0.00 29 1017.7
20260905225042 90 315 0.0 2.6 0.00 0.00 0.00 28 1017.7
20260905224551 90 0 0.0 2.6 0.00 0.00 0.00 25 1017.6